Hourly Data Report for October 06, 2017

All times are specified in Local Standard Time (LST). Add 1 hour to adjust for Daylight Saving Time where and when it is observed.

GJOA HAVEN A
NUNAVUT

68°38'08.000" N
95°51'01.000" W
46.90 m
2302337
71597
YHK

Related Data

No related data is available for this station

Download Data

Hourly Data (October 2017)
Hourly Data Report for October 6, 2017
Temp Definition
°C
Dew Point Temp Definition
°C
Rel Hum Definition
%
Wind Dir Definition
10's deg

Wind Spd Definition
km/h
Visibility Definition
km
Stn Press Definition
kPa
Hmdx Definition


Wind Chill Definition


Weather Definition


TIME
00:00 Legend Double Dagger -3.4 -6.0 82 5 18 16.1 99.70   -9 LegendNANA
01:00 Legend Double Dagger -2.9 -5.4 83 3 18 16.1 99.71   -9 LegendNANA
02:00 Legend Double Dagger -4.4 -5.5 92 35 24 16.1 99.71   -11 LegendNANA
03:00 Legend Double Dagger -4.7 -5.7 93 35 24 16.1 99.73   -12 LegendNANA
04:00 Legend Double Dagger -4.7 -5.2 96 34 18 14.5 99.74   -11 LegendNANA
05:00 Legend Double Dagger -4.4 -4.8 97 33 15 16.1 99.74   -10 LegendNANA
06:00 Legend Double Dagger -4.3 -4.8 96 35 17 16.1 99.75   -10 LegendNANA
07:00 Legend Double Dagger -5.5 -5.6 99 34 17 16.1 99.75   -12 LegendNANA
08:00 Legend Double Dagger -4.8 -4.9 99 35 18 16.1 99.75   -11 LegendNANA
09:00 Legend Double Dagger -4.3 -4.6 98 35 17 12.9 99.77   -10 LegendNANA
10:00 Legend Double Dagger -3.9 -4.0 99 35 21 2.4 99.77   -10 Snow
11:00 Legend Double Dagger -3.7 -3.8 99 36 17 4.8 99.80   -9 Snow
12:00 Legend Double Dagger -3.7 -3.8 99 36 11 2.8 99.82   -8 Snow
13:00 Legend Double Dagger -3.9 -4.0 99 34 8 1.2 99.84   -7 Snow
14:00 Legend Double Dagger -4.2 -4.3 99 35 5 16.1 99.88   -6 LegendNANA
15:00 Legend Double Dagger -4.4 -4.5 99 36 9 0.6 99.88   -8 Freezing Fog
16:00 Legend Double Dagger -4.2 -4.3 99 7 15 16.1 99.90   -10 LegendNANA
17:00 Legend Double Dagger -5.1 -5.4 98 1 11 16.1 99.94   -10 LegendNANA
18:00 Legend Double Dagger -4.8 -4.9 99 35 11 1.6 99.96   -9 Fog
19:00 Legend Double Dagger -4.0 -4.1 99 34 9 1.6 99.97   -8 Snow
20:00 Legend Double Dagger -4.6 -4.7 99 1 5 1.2 99.98   -7 Fog
21:00 Legend Double Dagger -3.7 -3.8 99 35 4 4.8 100.00   -5 Fog
22:00 Legend Double Dagger -3.2 -3.2 100   0 2.4 100.02     Fog
23:00 Legend Double Dagger -3.6 -3.7 99 29 5 2.8 100.04   -6 Fog

Notes on Data Quality.

Legend

  • E = Estimated
  • M = Missing
  • NA = Not Available
  • ‡ = Partner data that is not subject to review by the National Climate Archives
Date modified: